#timestamp,LO_Frequency,Hit,StdDev 
1697950845.9,286047005.6,E
1697950855.8,286047002.5,N
1697950875.7,286046998.9,P
1697950895.5,286046999.0,N
1697950915.3,286046999.5,N
1697950935.2,286046998.9,N
1697950955.9,286046999.0,N
1697950975.7,286046998.9,N
1697950995.6,286046998.2,N
1697951015.4,286046998.7,N
1697951035.3,286046998.3,N
1697951055.1,286047000.8,N
1697951056.0,286047000.8,N
1697951075.8,286047000.8,N
1697951095.7,286046998.2,N
1697951115.5,286046999.8,N
1697951135.3,286046999.8,N
1697951155.2,286047001.7,N
1697951175.0,286047001.9,N
1697951175.9,286047001.9,N
1697951195.8,286047001.8,N
1697951215.6,286047002.0,N
1697951235.4,286047001.6,N
1697951255.3,286047004.3,N
1697951275.1,286047001.3,N
1697951295.8,286047001.7,N
1697951315.7,286047003.6,N
1697951335.5,286047005.9,Y
1697951355.4,286047003.4,P
1697951375.2,286047005.6,P
1697951395.0,286047002.9,N
1697951395.9,286047002.9,N
1697951415.8,286047005.5,Y
1697951435.6,286047002.2,P
1697951455.4,286047000.1,N
1697951475.3,286047002.6,N
1697951495.1,286047002.3,N
1697951515.9,286046999.8,N
1697951535.7,286047001.4,N
1697951555.5,286047001.9,N
1697951575.4,286047001.3,N
1697951595.2,286047003.9,Y
1697951615.1,286047002.7,P
1697951616.0,286047002.7,P
1697951635.8,286046999.8,N
1697951655.6,286047000.9,N
1697951675.5,286047000.4,N
1697951695.3,286047000.5,N
1697951715.1,286047002.3,N
1697951735.9,286046999.9,N
1697951755.7,286047000.3,N
1697951775.6,286047001.7,N
1697951795.4,286047002.5,N
1697951815.2,286047001.6,N
1697951835.1,286047002.1,N
1697951836.0,286047002.1,N
1697951855.8,286047002.6,N
1697951875.6,286047001.9,N
1697951895.5,286047001.9,N
1697951915.3,286047001.9,N
1697951935.1,286047002.0,N
1697951955.9,286047003.8,Y
1697951975.7,286047002.3,P
1697951995.6,286047002.3,P
1697952015.4,286047002.8,P
1697952035.2,286047002.8,Y
1697952055.1,286046998.4,P
1697952056.0,286046998.4,N
1697952075.8,286046998.1,N
1697952095.7,286046998.4,N
1697952115.5,286046998.3,N
1697952135.3,286046998.8,N
1697952155.2,286046999.3,N
1697952175.0,286046998.9,N
1697952175.9,286046998.9,N
1697952195.7,286046998.3,N
1697952215.6,286047000.6,N
1697952235.4,286047000.7,N
1697952255.3,286047000.9,N
1697952275.1,286047002.3,N
1697952276.0,286047002.3,N
1697952295.8,286047002.4,N
1697952315.7,286046999.7,N
1697952335.5,286047002.1,N
1697952355.3,286047001.8,N
1697952375.2,286047001.9,N
1697952395.0,286047001.7,N
1697952395.9,286047001.7,N
1697952415.8,286047002.2,N
1697952435.6,286047002.5,N
1697952455.4,286047002.8,N
1697952475.3,286047000.2,N
1697952495.1,286047002.5,N
1697952515.8,286047002.0,N
1697952535.7,286047002.1,N
1697952555.5,286047004.4,N
1697952575.4,286047004.4,N
1697952595.2,286047001.3,N
1697952615.0,286047001.4,N
1697952615.9,286047001.4,N
1697952635.8,286047001.7,N
1697952655.6,286047004.0,N
1697952675.5,286047004.0,N
1697952695.3,286047003.9,N
1697952715.1,286047003.9,N
1697952735.9,286047004.4,Y
1697952755.7,286046999.8,P
1697952775.5,286047000.5,N
1697952795.4,286047000.1,N
1697952815.2,286047000.1,N
1697952835.1,286047000.5,N
1697952836.0,286047000.5,N
1697952855.8,286047001.1,N
1697952875.6,286046998.1,N
1697952895.5,286047001.2,N
1697952915.3,286046998.2,N
1697952935.1,286047000.4,N
1697952955.9,286047002.8,N
1697952975.7,286047000.1,N
1697952995.6,286046999.7,N
1697953015.4,286047002.4,N
1697953035.2,286047002.2,N
1697953055.1,286047002.3,N
1697953056.0,286047002.3,N
1697953075.8,286047002.6,N
1697953095.7,286047002.5,N
1697953115.5,286047002.1,N
1697953135.3,286047002.5,N
1697953155.2,286047002.0,N
1697953175.9,286047002.7,N
1697953195.7,286047001.9,N
1697953215.6,286046999.7,N
1697953235.4,286047002.8,N
1697953255.3,286047002.3,N
1697953275.1,286047002.6,N
1697953276.0,286047002.6,N
1697953295.8,286047002.5,N
1697953315.7,286047001.5,N
1697953335.5,286047004.2,Y
1697953355.3,286047000.3,P
1697953375.2,286046999.9,N
1697953395.0,286047000.0,N
1697953395.9,286047000.0,N
1697953415.8,286047000.8,N
1697953435.6,286047000.5,N
1697953455.4,286046998.9,N
1697953475.3,286047001.0,N
1697953495.1,286047000.0,N
1697953515.8,286047000.4,N
1697953535.7,286046999.9,N
1697953555.5,286047000.7,N
1697953575.4,286047000.3,N
1697953595.2,286047000.2,N
1697953615.0,286047000.0,N
1697953615.9,286047000.0,N
1697953635.8,286047000.1,N
1697953655.6,286047000.5,N
1697953675.4,286047000.8,N
1697953695.3,286046998.1,Y
1697953715.1,286046998.3,P
1697953735.9,286046998.8,N
1697953755.7,286046999.4,N
1697953775.5,286046998.4,N
1697953795.4,286046998.7,N
1697953815.2,286046998.7,N
1697953835.0,286046999.3,N
1697953836.0,286046999.3,N
1697953855.8,286046998.3,N
1697953875.6,286046998.8,N
1697953895.5,286046998.8,N
1697953915.3,286046999.0,N
1697953935.1,286046998.8,N
1697953955.9,286046998.5,Y
1697953975.7,286046998.6,P
1697953995.6,286046998.5,P
1697954015.4,286046998.1,P
1697954035.2,286046998.7,Y
1697954055.1,286047000.9,P
1697954056.0,286047000.9,N
1697954075.8,286047000.5,N
1697954095.6,286046998.5,N
1697954115.5,286046998.2,N
1697954135.3,286046998.9,N
1697954155.2,286046999.1,N
1697954175.9,286046998.4,N
1697954195.7,286046999.1,N
1697954215.6,286046996.9,Y
1697954235.4,286046999.2,P
1697954255.3,286046999.3,P
1697954275.1,286046998.6,P
1697954276.0,286046998.6,Y
1697954295.8,286047000.7,P
1697954315.7,286047000.5,N
1697954335.5,286047000.0,N
1697954355.3,286047000.4,N
1697954375.2,286047000.9,N
1697954395.0,286047000.6,N
1697954395.9,286047000.6,N
